Tracking 31027 objects as of 19-Jul-2025
HD Live streaming from Space Station
objects crossing your sky now

SL-14 R/B

Track SL-14 R/B now!
10-day predictions


NORAD ID: 15370
Int'l Code: 1984-111B
Perigee: 603.6 km
Apogee: 633.1 km
Inclination: 82.5 °
Period: 96.9 minutes
Semi major axis: 6989 km
RCS: 4.088 m2 (large)
Launch date: October 18, 1984
Source: Commonwealth of Independent States (former USSR) (CIS)
Launch site: PLESETSK MISSILE AND SPACE COMPLEX (PKMTR)

Note: This is a ROCKET BODY
Your satellite tracking list
STARLINK-1578
Track 1 satellite(s)




NASA's NSSDC Master Catalog

Two Line Element Set (TLE):
1 15370U 84111B   25199.20176639  .00000365  00000-0  39098-4 0  9998
2 15370  82.5168 117.1240 0021065  32.8028 327.4491 14.85754975202156
Source of the keplerian elements: AFSPC